Météo par heure à Aathal

Ce jour, 18 Avril, Dimanche

Heure Température Précipitation Vent Pression Humidité
00:00 +3°C° 0 mm 1 m/s 715 mmHg 93%
01:00 +2°C° 0 mm 1 m/s 714 mmHg 95%
02:00 +2°C° 0 mm 1 m/s 714 mmHg 94%
03:00 +2°C° 0 mm 1 m/s 714 mmHg 94%
04:00 +2°C° 0 mm 1 m/s 714 mmHg 93%
05:00 +1°C° 0.1 mm 0 m/s 714 mmHg 94%
06:00 +1°C° 0.1 mm 0 m/s 714 mmHg 95%
07:00 +2°C° 0.1 mm 0 m/s 715 mmHg 96%
08:00 +2°C° 0.1 mm 0 m/s 715 mmHg 94%
09:00 +4°C° 0.1 mm 1 m/s 715 mmHg 92%
10:00 +4°C° 0.1 mm 1 m/s 715 mmHg 91%
11:00 +5°C° 0.1 mm 1 m/s 715 mmHg 88%
12:00 +6°C° 0.1 mm 1 m/s 715 mmHg 85%
13:00 +6°C° 0.1 mm 1 m/s 715 mmHg 82%
14:00 +7°C° 0.1 mm 1 m/s 715 mmHg 79%
15:00 +7°C° 0.1 mm 1 m/s 714 mmHg 76%
16:00 +6°C° 0.1 mm 2 m/s 714 mmHg 73%
17:00 +7°C° 0.1 mm 1 m/s 714 mmHg 79%
18:00 +6°C° 0.1 mm 1 m/s 715 mmHg 84%
19:00 +5°C° 0.1 mm 1 m/s 715 mmHg 90%
20:00 +5°C° 0 mm 1 m/s 715 mmHg 92%
21:00 +3°C° 0 mm 0 m/s 715 mmHg 93%
22:00 +2°C° 0 mm 0 m/s 715 mmHg 95%
23:00 +2°C° 0 mm 0 m/s 715 mmHg 95%

Demain, 19 Avril, Lundi

Heure Température Précipitation Vent Pression Humidité
00:00 +2°C° 0 mm 0 m/s 715 mmHg 95%
01:00 +1°C° 0 mm 0 m/s 715 mmHg 95%
02:00 +1°C° 0 mm 0 m/s 715 mmHg 95%
03:00 +1°C° 0 mm 0 m/s 715 mmHg 95%
04:00 +1°C° 0 mm 0 m/s 715 mmHg 94%
05:00 +1°C° 0 mm 0 m/s 715 mmHg 93%
06:00 +2°C° 0 mm 0 m/s 715 mmHg 91%
07:00 +3°C° 0 mm 0 m/s 715 mmHg 89%
08:00 +4°C° 0 mm 0 m/s 715 mmHg 82%
09:00 +6°C° 0 mm 0 m/s 715 mmHg 74%
10:00 +8°C° 0 mm 1 m/s 715 mmHg 66%
11:00 +9°C° 0 mm 1 m/s 714 mmHg 63%
12:00 +9°C° 0 mm 1 m/s 714 mmHg 60%
13:00 +10°C° 0 mm 1 m/s 714 mmHg 57%
14:00 +10°C° 0 mm 1 m/s 714 mmHg 57%
15:00 +10°C° 0 mm 1 m/s 714 mmHg 58%
16:00 +10°C° 0 mm 1 m/s 714 mmHg 58%
17:00 +9°C° 0 mm 1 m/s 714 mmHg 64%
18:00 +7°C° 0 mm 0 m/s 714 mmHg 70%
19:00 +6°C° 0 mm 0 m/s 713 mmHg 76%
20:00 +4°C° 0 mm 0 m/s 714 mmHg 81%
21:00 +4°C° 0 mm 1 m/s 714 mmHg 85%
22:00 +3°C° 0 mm 1 m/s 714 mmHg 89%
23:00 +2°C° 0 mm 1 m/s 714 mmHg 90%

Après-demain, 20 Avril, Mardi

Heure Température Précipitation Vent Pression Humidité
00:00 +2°C° 0 mm 1 m/s 714 mmHg 90%
01:00 +2°C° 0 mm 1 m/s 714 mmHg 90%
02:00 +1°C° 0 mm 1 m/s 714 mmHg 90%
03:00 +1°C° 0 mm 1 m/s 713 mmHg 90%
04:00 +1°C° 0 mm 1 m/s 713 mmHg 90%
05:00 +2°C° 0 mm 1 m/s 713 mmHg 86%
06:00 +2°C° 0 mm 0 m/s 713 mmHg 82%
07:00 +3°C° 0 mm 0 m/s 713 mmHg 78%
08:00 +6°C° 0 mm 1 m/s 713 mmHg 72%
09:00 +8°C° 0 mm 1 m/s 713 mmHg 66%
10:00 +10°C° 0 mm 1 m/s 713 mmHg 60%
11:00 +11°C° 0 mm 1 m/s 713 mmHg 57%
12:00 +12°C° 0 mm 1 m/s 713 mmHg 54%
13:00 +13°C° 0 mm 1 m/s 712 mmHg 52%
14:00 +13°C° 0 mm 1 m/s 712 mmHg 52%
15:00 +13°C° 0 mm 2 m/s 712 mmHg 52%
16:00 +13°C° 0 mm 2 m/s 712 mmHg 52%
17:00 +11°C° 0 mm 1 m/s 712 mmHg 61%
18:00 +10°C° 0 mm 1 m/s 712 mmHg 70%
19:00 +8°C° 0 mm 1 m/s 712 mmHg 78%
20:00 +7°C° 0 mm 1 m/s 712 mmHg 82%
21:00 +6°C° 0 mm 1 m/s 713 mmHg 85%
22:00 +4°C° 0 mm 1 m/s 713 mmHg 88%
23:00 +4°C° 0 mm 1 m/s 713 mmHg 89%

21 Avril, Mercredi

Heure Température Précipitation Vent Pression Humidité
00:00 +4°C° 0 mm 1 m/s 713 mmHg 89%
01:00 +3°C° 0 mm 1 m/s 713 mmHg 90%
02:00 +3°C° 0 mm 1 m/s 713 mmHg 90%
03:00 +3°C° 0 mm 1 m/s 713 mmHg 90%
04:00 +2°C° 0 mm 1 m/s 713 mmHg 90%
05:00 +3°C° 0 mm 1 m/s 714 mmHg 86%
06:00 +3°C° 0 mm 0 m/s 714 mmHg 82%
07:00 +4°C° 0 mm 0 m/s 714 mmHg 78%
08:00 +7°C° 0 mm 0 m/s 714 mmHg 71%
09:00 +10°C° 0 mm 1 m/s 714 mmHg 64%
10:00 +12°C° 0 mm 1 m/s 714 mmHg 57%
11:00 +14°C° 0 mm 1 m/s 714 mmHg 53%
12:00 +15°C° 0 mm 1 m/s 714 mmHg 49%
13:00 +16°C° 0 mm 1 m/s 714 mmHg 45%
14:00 +16°C° 0.1 mm 1 m/s 713 mmHg 45%
15:00 +16°C° 0.1 mm 1 m/s 713 mmHg 44%
16:00 +16°C° 0.1 mm 1 m/s 713 mmHg 43%
17:00 +14°C° 0.1 mm 1 m/s 713 mmHg 53%
18:00 +12°C° 0.1 mm 1 m/s 713 mmHg 62%
19:00 +10°C° 0.1 mm 1 m/s 713 mmHg 71%
20:00 +9°C° 0 mm 1 m/s 714 mmHg 76%
21:00 +8°C° 0 mm 1 m/s 714 mmHg 81%
22:00 +7°C° 0 mm 1 m/s 715 mmHg 85%
23:00 +6°C° 0 mm 1 m/s 715 mmHg 86%

22 Avril, Jeudi

Heure Température Précipitation Vent Pression Humidité
00:00 +6°C° 0 mm 1 m/s 715 mmHg 87%
01:00 +5°C° 0 mm 1 m/s 715 mmHg 88%
02:00 +5°C° 0 mm 1 m/s 715 mmHg 88%
03:00 +5°C° 0 mm 1 m/s 716 mmHg 88%
04:00 +5°C° 0 mm 1 m/s 716 mmHg 88%
05:00 +6°C° 0 mm 1 m/s 716 mmHg 85%
06:00 +6°C° 0 mm 0 m/s 716 mmHg 83%
07:00 +6°C° 0 mm 0 m/s 716 mmHg 81%
08:00 +8°C° 0 mm 0 m/s 716 mmHg 76%
09:00 +11°C° 0 mm 1 m/s 717 mmHg 71%
10:00 +12°C° 0 mm 1 m/s 717 mmHg 66%
11:00 +13°C° 0.2 mm 1 m/s 717 mmHg 63%
12:00 +14°C° 0.2 mm 1 m/s 716 mmHg 60%
13:00 +15°C° 0.2 mm 1 m/s 716 mmHg 57%
14:00 +15°C° 0.2 mm 1 m/s 716 mmHg 55%
15:00 +16°C° 0.2 mm 1 m/s 716 mmHg 53%
16:00 +16°C° 0.2 mm 1 m/s 716 mmHg 52%
17:00 +14°C° 0.1 mm 1 m/s 716 mmHg 60%
18:00 +12°C° 0.1 mm 1 m/s 716 mmHg 69%
19:00 +10°C° 0.1 mm 1 m/s 716 mmHg 77%
20:00 +8°C° 0 mm 2 m/s 717 mmHg 78%
21:00 +7°C° 0 mm 2 m/s 717 mmHg 79%
22:00 +5°C° 0 mm 2 m/s 718 mmHg 80%
23:00 +6°C° 0 mm 1 m/s 717 mmHg 82%

23 Avril, Vendredi

Heure Température Précipitation Vent Pression Humidité
00:00 +5°C° 0 mm 1 m/s 717 mmHg 83%
01:00 +4°C° 0 mm 1 m/s 717 mmHg 85%
02:00 +3°C° 0 mm 1 m/s 717 mmHg 86%
03:00 +3°C° 0 mm 1 m/s 717 mmHg 88%
04:00 +2°C° 0 mm 1 m/s 717 mmHg 89%
05:00 +3°C° 0 mm 1 m/s 717 mmHg 86%
06:00 +4°C° 0 mm 1 m/s 717 mmHg 82%
07:00 +4°C° 0 mm 1 m/s 718 mmHg 79%
08:00 +6°C° 0 mm 2 m/s 718 mmHg 71%
09:00 +8°C° 0 mm 2 m/s 717 mmHg 64%
10:00 +10°C° 0 mm 3 m/s 717 mmHg 57%
11:00 +11°C° 0 mm 3 m/s 717 mmHg 51%
12:00 +13°C° 0 mm 4 m/s 717 mmHg 44%
13:00 +14°C° 0 mm 4 m/s 716 mmHg 38%
14:00 +14°C° 0 mm 4 m/s 716 mmHg 39%
15:00 +14°C° 0 mm 5 m/s 716 mmHg 40%
16:00 +14°C° 0 mm 5 m/s 716 mmHg 40%
17:00 +12°C° 0 mm 4 m/s 716 mmHg 48%
18:00 +10°C° 0 mm 4 m/s 716 mmHg 55%
19:00 +7°C° 0 mm 4 m/s 716 mmHg 63%
20:00 +7°C° 0 mm 3 m/s 717 mmHg 68%
21:00 +5°C° 0 mm 3 m/s 717 mmHg 73%
22:00 +4°C° 0 mm 2 m/s 717 mmHg 78%
23:00 +3°C° 0 mm 2 m/s 717 mmHg 80%
Voir plus

Nous avons besoin de votre consentement

Meteoprog et ses fournisseurs de services peuvent stocker et accéder à des données personnelles telles que des cookies, des identifiants d'appareils ou d'autres technologies similaires sur votre appareil et traiter ces données pour personnaliser le contenu et les publicités, ainsi que pour fournir des fonctionnalités de médias sociaux et analyser le trafic.

  • Stocker et/ou accéder à des informations sur votre appareil

    Des cookies, des identifiants d'appareils ou d'autres informations peuvent être stockés ou accessibles sur votre appareil aux fins indiquées ci-dessus.

  • Annonces et contenus personnalisés, mesure des annonces et des contenus, connaissance de l'audience et développement de produits

    Les annonces et le contenu peuvent être personnalisés en fonction d'un profil. D'autres données peuvent être ajoutées pour mieux personnaliser les annonces et le contenu. Les performances des publicités et du contenu peuvent être mesurées. Il est possible d'obtenir des informations sur le public qui a vu les publicités et le contenu. Ces données peuvent être utilisées pour développer ou améliorer l'expérience de l'utilisateur, les systèmes et les logiciels.

En cliquant sur "J'accepte", vous autorisez l'utilisation de cookies, des identifiants d'appareils, des balises web ou d'autres technologies similaires. Vos paramètres peuvent être modifiés dans le navigateur de votre appareil.

Dans certains cas, des intérêts légitimes peuvent être invoqués plutôt qu'un consentement. Vous pouvez en savoir plus à ce sujet dans notre Politique de confidentialité et de cookies.